Regional Weather Roundup
Issued by NWS Cleveland, OH

Home | Current Version | Previous Version | Graphics & Text | Print | Product List | Glossary On
Versions: 1 2 3 4 5 6 7 8 9 10 11 12 13 14 15 16 17 18 19 20 21 22 23 24 25 26 27 28 29 30 31 32 33 34 35 36 37 38 39 40 41 42 43 44 45 46 47 48 49 50
000
ASUS41 KCLE 201102
RWRCLE
OHIO REGIONAL WEATHER ROUNDUP
NATIONAL WEATHER SERVICE CLEVELAND, OH
600 AM EST MON FEB 20 2017

NOTE: "FAIR" INDICATES FEW OR NO CLOUDS BELOW 12,000 FEET WITH NO
SIGNIFICANT WEATHER AND/OR OBSTRUCTIONS TO VISIBILITY.

OHZ001>008-015>018-024>027-034-035-043-044-201200-
   NORTHWEST OHIO

CITY           SKY/WX    TMP DP  RH WIND       PRES   REMARKS
DEFIANCE       CLOUDY    32  29  88 NE3       30.21R
FINDLAY        CLOUDY    37  31  78 E3        30.19R
TOLEDO EXPRESS CLOUDY    37  34  89 NE5       30.22R
TOLEDO EXEC    CLOUDY    38  34  85 NE7       30.23R
LIMA           FOG       40  40 100 S6        30.20R VSB 1
$$

OHZ009>014-019>023-028>033-038-089-201200-
   NORTHEAST OHIO

CITY           SKY/WX    TMP DP  RH WIND       PRES   REMARKS
CLE-HOPKINS    MOCLDY    35  30  82 CALM      30.24R
CLE-LAKEFRONT  CLOUDY    37  33  85 CALM      30.21S
CUY CO. ARPT   NOT AVBL
LORAIN-ELYRIA  CLOUDY    32  29  88 CALM      30.22R
ASHTABULA      CLEAR     29  28  96 E3        30.23R
AKRON-CANTON   FOG       36  34  92 CALM      30.21R VSB 1/2
WOOSTER        FOG       30  29  96 CALM      30.21R VSB 1
MANSFIELD      FOG       38  37  97 CALM      30.20R VSB 1/2
YOUNGSTOWN     MOCLDY    34  30  85 CALM      30.22R
$$

OHZ042-051>053-060>062-070>072-077>081-201200-
  SOUTHWEST OHIO

CITY           SKY/WX    TMP DP  RH WIND       PRES   REMARKS
CINC-COVINGTON FOG       39  39 100 E3        30.21R VSB 1/4
CINC-LUNKEN    FOG       40  40 100 CALM      30.25R VSB 1/4
HAMILTON       FOG       39  39 100 CALM      30.23R VSB<1/4
DAYTON         FOG       36  35  96 CALM      30.22R VSB 1/16
WRIGHT-PAT AFB FOG       36  36 100 CALM      30.21R VSB 1/8
DAYTON GENERAL FOG       36  36 100 CALM      30.21R VSB<1/4
WILMINGTON     FOG       34  34 100 CALM      30.21R VSB 1/4
$$

OHZ036-037-039>041-045>050-054>059-063>069-073>076-082>088-201200-
  CENTRAL AND SOUTHEAST OHIO

CITY           SKY/WX    TMP DP  RH WIND       PRES   REMARKS
COLUMBUS       FOG       40  38  93 SE3       30.20R VSB 1/8
OSU AIRPORT    FOG       36  36 100 CALM      30.20S VSB<1/4
BOLTON FIELD   NOT AVBL
RICKENBACK AFB FOG       34  34 100 CALM      30.21S VSB 1/4
NEWARK         FOG       36  35  96 CALM      30.20S VSB 1/4
MARION         FOG       34  33  96 CALM      30.21R VSB 1/4
LANCASTER      FOG       34  33  96 CALM      30.22R VSB 1/4
ZANESVILLE     FOG       36  35  96 CALM      30.22R VSB<1/4
NEW PHILLY     NOT AVBL
$$



USA.gov is the U.S. government's official web portal to all federal, state and local government web resources and services.